Time,TemperatureF,DewpointF,PressureIn,WindDirection,WindDirectionDegrees,WindSpeedMPH,WindSpeedGustMPH,Humidity,HourlyPrecipIn,Conditions,Clouds,dailyrainin,SoftwareType,DateUTC
2013-01-29 00:00:00,11.0,-99.9,-100.00,NE,47,37.0,44.0,-999,0.02,,,0.30,,2013-01-29 09:00:00,
2013-01-29 00:32:00,11.0,-99.9,-100.00,NE,47,37.0,44.0,-999,0.02,,,0.30,,2013-01-29 09:32:00,
2013-01-29 00:42:00,11.0,-99.9,-100.00,NE,47,37.0,44.0,-999,0.02,,,0.30,,2013-01-29 09:42:00,
2013-01-29 00:52:00,11.0,-99.9,-100.00,NE,47,37.0,44.0,-999,0.02,,,0.30,,2013-01-29 09:52:00,
2013-01-29 01:00:00,11.0,-99.9,-100.00,NE,40,35.0,47.0,-999,0.02,,,0.35,,2013-01-29 10:00:00,
2013-01-29 01:32:00,11.0,-99.9,-100.00,NE,40,35.0,47.0,-999,0.02,,,0.35,,2013-01-29 10:32:00,
2013-01-29 01:42:00,11.0,-99.9,-100.00,NE,40,35.0,47.0,-999,0.02,,,0.35,,2013-01-29 10:42:00,
2013-01-29 01:52:00,11.0,-99.9,-100.00,NE,40,35.0,47.0,-999,0.02,,,0.35,,2013-01-29 10:52:00,
2013-01-29 02:00:00,12.0,-99.9,-100.00,NE,54,36.0,43.0,-999,0.01,,,0.37,,2013-01-29 11:00:00,
2013-01-29 02:32:00,12.0,-99.9,-100.00,NE,54,36.0,43.0,-999,0.01,,,0.37,,2013-01-29 11:32:00,
2013-01-29 02:42:00,12.0,-99.9,-100.00,NE,54,36.0,43.0,-999,0.01,,,0.37,,2013-01-29 11:42:00,
2013-01-29 02:53:00,12.0,-99.9,-100.00,NE,54,36.0,43.0,-999,0.01,,,0.37,,2013-01-29 11:53:00,
2013-01-29 03:00:00,12.0,-99.9,-100.00,NE,36,30.0,35.0,-999,0.01,,,0.38,,2013-01-29 12:00:00,
2013-01-29 03:33:00,12.0,-99.9,-100.00,NE,36,30.0,35.0,-999,0.01,,,0.38,,2013-01-29 12:33:00,
2013-01-29 03:43:00,12.0,-99.9,-100.00,NE,36,30.0,35.0,-999,0.01,,,0.38,,2013-01-29 12:43:00,
2013-01-29 03:53:00,12.0,-99.9,-100.00,NE,36,30.0,35.0,-999,0.01,,,0.38,,2013-01-29 12:53:00,
2013-01-29 04:00:00,13.0,-99.9,-100.00,NNE,26,28.0,33.0,-999,0.00,,,0.39,,2013-01-29 13:00:00,
2013-01-29 04:32:00,13.0,-99.9,-100.00,NNE,26,28.0,33.0,-999,0.00,,,0.39,,2013-01-29 13:32:00,
2013-01-29 04:43:00,13.0,-99.9,-100.00,NNE,26,28.0,33.0,-999,0.00,,,0.39,,2013-01-29 13:43:00,
2013-01-29 04:53:00,13.0,-99.9,-100.00,NNE,26,28.0,33.0,-999,0.00,,,0.39,,2013-01-29 13:53:00,
2013-01-29 05:00:00,14.0,-99.9,-100.00,NE,47,24.0,30.0,-999,0.01,,,0.40,,2013-01-29 14:00:00,
2013-01-29 05:33:00,14.0,-99.9,-100.00,NE,47,24.0,30.0,-999,0.01,,,0.40,,2013-01-29 14:33:00,
2013-01-29 05:43:00,14.0,-99.9,-100.00,NE,47,24.0,30.0,-999,0.01,,,0.40,,2013-01-29 14:43:00,
2013-01-29 05:53:00,14.0,-99.9,-100.00,NE,47,24.0,30.0,-999,0.01,,,0.40,,2013-01-29 14:53:00,
2013-01-29 06:00:00,14.0,-99.9,-100.00,NE,45,24.0,30.0,-999,0.03,,,0.43,,2013-01-29 15:00:00,
2013-01-29 06:33:00,14.0,-99.9,-100.00,NE,45,24.0,30.0,-999,0.03,,,0.43,,2013-01-29 15:33:00,
2013-01-29 06:43:00,14.0,-99.9,-100.00,NE,45,24.0,30.0,-999,0.03,,,0.43,,2013-01-29 15:43:00,
2013-01-29 06:53:00,14.0,-99.9,-100.00,NE,45,24.0,30.0,-999,0.03,,,0.43,,2013-01-29 15:53:00,
2013-01-29 07:00:00,15.0,-99.9,-100.00,NE,51,24.0,31.0,-999,0.01,,,0.44,,2013-01-29 16:00:00,
2013-01-29 07:33:00,15.0,-99.9,-100.00,NE,51,24.0,31.0,-999,0.01,,,0.44,,2013-01-29 16:33:00,
2013-01-29 07:43:00,15.0,-99.9,-100.00,NE,51,24.0,31.0,-999,0.01,,,0.44,,2013-01-29 16:43:00,
2013-01-29 07:53:00,15.0,-99.9,-100.00,NE,51,24.0,31.0,-999,0.01,,,0.44,,2013-01-29 16:53:00,
2013-01-29 08:00:00,15.0,-99.9,-100.00,NE,48,20.0,24.0,-999,0.00,,,0.43,,2013-01-29 17:00:00,
2013-01-29 08:33:00,15.0,-99.9,-100.00,NE,48,20.0,24.0,-999,0.00,,,0.43,,2013-01-29 17:33:00,
2013-01-29 08:43:00,15.0,-99.9,-100.00,NE,48,20.0,24.0,-999,0.00,,,0.43,,2013-01-29 17:43:00,
2013-01-29 08:53:00,15.0,-99.9,-100.00,NE,48,20.0,24.0,-999,0.00,,,0.43,,2013-01-29 17:53:00,
2013-01-29 09:00:00,15.0,-99.9,-100.00,NE,55,15.0,19.0,-999,0.01,,,0.43,,2013-01-29 18:00:00,
2013-01-29 09:34:00,15.0,-99.9,-100.00,NE,55,15.0,19.0,-999,0.01,,,0.43,,2013-01-29 18:34:00,
2013-01-29 09:43:00,15.0,-99.9,-100.00,NE,55,15.0,19.0,-999,0.01,,,0.43,,2013-01-29 18:43:00,
2013-01-29 09:52:00,15.0,-99.9,-100.00,NE,55,15.0,19.0,-999,0.01,,,0.43,,2013-01-29 18:52:00,
2013-01-29 10:00:00,16.0,-99.9,-100.00,ENE,59,14.0,18.0,-999,0.00,,,0.39,,2013-01-29 19:00:00,
2013-01-29 10:33:00,16.0,-99.9,-100.00,ENE,59,14.0,18.0,-999,0.00,,,0.39,,2013-01-29 19:33:00,
2013-01-29 10:42:00,16.0,-99.9,-100.00,ENE,59,14.0,18.0,-999,0.00,,,0.39,,2013-01-29 19:42:00,
2013-01-29 10:52:00,16.0,-99.9,-100.00,ENE,59,14.0,18.0,-999,0.00,,,0.39,,2013-01-29 19:52:00,
2013-01-29 11:00:00,17.0,-99.9,-100.00,ENE,58,12.0,16.0,-999,0.02,,,0.37,,2013-01-29 20:00:00,
2013-01-29 11:33:00,17.0,-99.9,-100.00,ENE,58,12.0,16.0,-999,0.02,,,0.37,,2013-01-29 20:33:00,
2013-01-29 11:43:00,17.0,-99.9,-100.00,ENE,58,12.0,16.0,-999,0.02,,,0.37,,2013-01-29 20:43:00,
2013-01-29 11:54:00,17.0,-99.9,-100.00,ENE,58,12.0,16.0,-999,0.02,,,0.37,,2013-01-29 20:54:00,
2013-01-29 12:00:00,16.0,-99.9,-100.00,ENE,60,12.0,16.0,-999,0.01,,,0.36,,2013-01-29 21:00:00,
2013-01-29 12:34:00,16.0,-99.9,-100.00,ENE,60,12.0,16.0,-999,0.01,,,0.36,,2013-01-29 21:34:00,
2013-01-29 12:43:00,16.0,-99.9,-100.00,ENE,60,12.0,16.0,-999,0.01,,,0.36,,2013-01-29 21:43:00,
2013-01-29 12:53:00,16.0,-99.9,-100.00,ENE,60,12.0,16.0,-999,0.01,,,0.36,,2013-01-29 21:53:00,
2013-01-29 13:00:00,15.0,-99.9,-100.00,East,81,9.0,11.0,-999,0.01,,,0.34,,2013-01-29 22:00:00,
2013-01-29 13:33:00,15.0,-99.9,-100.00,East,81,9.0,11.0,-999,0.01,,,0.34,,2013-01-29 22:33:00,
2013-01-29 13:43:00,15.0,-99.9,-100.00,East,81,9.0,11.0,-999,0.01,,,0.34,,2013-01-29 22:43:00,
2013-01-29 13:53:00,15.0,-99.9,-100.00,East,81,9.0,11.0,-999,0.01,,,0.34,,2013-01-29 22:53:00,
2013-01-29 14:00:00,18.0,-99.9,-100.00,ENE,76,7.0,11.0,-999,0.02,,,0.35,,2013-01-29 23:00:00,
2013-01-29 14:33:00,18.0,-99.9,-100.00,ENE,76,7.0,11.0,-999,0.02,,,0.35,,2013-01-29 23:33:00,
2013-01-29 14:42:00,18.0,-99.9,-100.00,ENE,76,7.0,11.0,-999,0.02,,,0.35,,2013-01-29 23:42:00,
2013-01-29 14:53:00,18.0,-99.9,-100.00,ENE,76,7.0,11.0,-999,0.02,,,0.35,,2013-01-29 23:53:00,
2013-01-29 15:00:00,15.0,-99.9,-100.00,NE,55,6.0,9.0,-999,0.00,,,0.32,,2013-01-30 00:00:00,
2013-01-29 15:33:00,15.0,-99.9,-100.00,NE,55,6.0,9.0,-999,0.00,,,0.32,,2013-01-30 00:33:00,
2013-01-29 15:43:00,15.0,-99.9,-100.00,NE,55,6.0,9.0,-999,0.00,,,0.32,,2013-01-30 00:43:00,
2013-01-29 15:53:00,15.0,-99.9,-100.00,NE,55,6.0,9.0,-999,0.00,,,0.32,,2013-01-30 00:53:00,
2013-01-29 16:00:00,15.0,-99.9,-100.00,ENE,70,6.0,10.0,-999,0.00,,,0.30,,2013-01-30 01:00:00,
2013-01-29 16:32:00,15.0,-99.9,-100.00,ENE,70,6.0,10.0,-999,0.00,,,0.30,,2013-01-30 01:32:00,
2013-01-29 16:43:00,15.0,-99.9,-100.00,ENE,70,6.0,10.0,-999,0.00,,,0.30,,2013-01-30 01:43:00,
2013-01-29 16:52:00,15.0,-99.9,-100.00,ENE,70,6.0,10.0,-999,0.00,,,0.30,,2013-01-30 01:52:00,
2013-01-29 17:00:00,14.0,-99.9,-100.00,East,87,5.0,7.0,-999,0.01,,,0.29,,2013-01-30 02:00:00,
2013-01-29 17:33:00,14.0,-99.9,-100.00,East,87,5.0,7.0,-999,0.01,,,0.29,,2013-01-30 02:33:00,
2013-01-29 17:42:00,14.0,-99.9,-100.00,East,87,5.0,7.0,-999,0.01,,,0.29,,2013-01-30 02:42:00,
2013-01-29 17:53:00,14.0,-99.9,-100.00,East,87,5.0,7.0,-999,0.01,,,0.29,,2013-01-30 02:53:00,
2013-01-29 18:00:00,15.0,-99.9,-100.00,ENE,70,5.0,8.0,-999,0.00,,,0.28,,2013-01-30 03:00:00,
2013-01-29 18:33:00,15.0,-99.9,-100.00,ENE,70,5.0,8.0,-999,0.00,,,0.28,,2013-01-30 03:33:00,
2013-01-29 18:42:00,15.0,-99.9,-100.00,ENE,70,5.0,8.0,-999,0.00,,,0.28,,2013-01-30 03:42:00,
2013-01-29 18:52:00,15.0,-99.9,-100.00,ENE,70,5.0,8.0,-999,0.00,,,0.28,,2013-01-30 03:52:00,
2013-01-29 19:00:00,16.0,-99.9,-100.00,ENE,66,8.0,11.0,-999,0.00,,,0.26,,2013-01-30 04:00:00,
2013-01-29 19:32:00,16.0,-99.9,-100.00,ENE,66,8.0,11.0,-999,0.00,,,0.26,,2013-01-30 04:32:00,
2013-01-29 19:42:00,16.0,-99.9,-100.00,ENE,66,8.0,11.0,-999,0.00,,,0.26,,2013-01-30 04:42:00,
2013-01-29 19:52:00,16.0,-99.9,-100.00,ENE,66,8.0,11.0,-999,0.00,,,0.26,,2013-01-30 04:52:00,
2013-01-29 20:00:00,16.0,-99.9,-100.00,ENE,77,6.0,10.0,-999,0.00,,,0.23,,2013-01-30 05:00:00,
2013-01-29 20:33:00,16.0,-99.9,-100.00,ENE,77,6.0,10.0,-999,0.00,,,0.23,,2013-01-30 05:33:00,
2013-01-29 20:43:00,16.0,-99.9,-100.00,ENE,77,6.0,10.0,-999,0.00,,,0.23,,2013-01-30 05:43:00,
2013-01-29 20:52:00,16.0,-99.9,-100.00,ENE,77,6.0,10.0,-999,0.00,,,0.23,,2013-01-30 05:52:00,
2013-01-29 21:00:00,20.0,-99.9,-100.00,NE,43,12.0,17.0,-999,0.01,,,0.23,,2013-01-30 06:00:00,
2013-01-29 21:32:00,20.0,-99.9,-100.00,NE,43,12.0,17.0,-999,0.01,,,0.23,,2013-01-30 06:32:00,
2013-01-29 21:42:00,20.0,-99.9,-100.00,NE,43,12.0,17.0,-999,0.01,,,0.23,,2013-01-30 06:42:00,
2013-01-29 21:52:00,20.0,-99.9,-100.00,NE,43,12.0,17.0,-999,0.01,,,0.23,,2013-01-30 06:52:00,
2013-01-29 22:00:00,22.0,-99.9,-100.00,NE,48,16.0,22.0,-999,0.01,,,0.23,,2013-01-30 07:00:00,
2013-01-29 22:32:00,22.0,-99.9,-100.00,NE,48,16.0,22.0,-999,0.01,,,0.23,,2013-01-30 07:32:00,
2013-01-29 22:42:00,22.0,-99.9,-100.00,NE,48,16.0,22.0,-999,0.01,,,0.23,,2013-01-30 07:42:00,
2013-01-29 22:52:00,22.0,-99.9,-100.00,NE,48,16.0,22.0,-999,0.01,,,0.23,,2013-01-30 07:52:00,
2013-01-29 23:00:00,23.0,-99.9,-100.00,ENE,66,15.0,19.0,-999,0.03,,,0.24,,2013-01-30 08:00:00,
2013-01-29 23:32:00,23.0,-99.9,-100.00,ENE,66,15.0,19.0,-999,0.03,,,0.24,,2013-01-30 08:32:00,
2013-01-29 23:42:00,23.0,-99.9,-100.00,ENE,66,15.0,19.0,-999,0.03,,,0.24,,2013-01-30 08:42:00,
2013-01-29 23:52:00,23.0,-99.9,-100.00,ENE,66,15.0,19.0,-999,0.03,,,0.24,,2013-01-30 08:52:00,